Weather in Yermaki

Russia / Irkutsk Oblast     56°37′40″N   107°48′55″E
temp.,
°C
wind,
m/s
gust,
m/s
humid.,
%
clouds,
%
prec.,
mm/h
press.,
hPa
HPBL,
m
16 april, fri
fri1623:00−7w2194100 0.0 102024
02:00−7sw2393100 0.0 102052
05:00−4ssw41283100 0.0 1018507
08:00−3s61384100 0.2 10171093
11:00−1s71492100 1.6 10141010
14:000s81596100 4.1 1012908
17:00+1ssw61498100 6.2 1011866
20:00+2ssw61497100 6.9 1009881
17 april, sat
sat1723:00+3ssw61586100 0.8 1006989
02:00+3ssw71579100 0.9 1004776
05:00+3ssw51388100 0.7 1002812
08:00+3ssw51393100 0.8 1002925
11:00−1wnw41093100 1.7 1006533
14:00+1nw4777100 2.4 10091096
17:000nw3569100 0.2 10101135
20:00−3nw3777100 0.3 1014350
18 april, sun
sun1823:00−6nnw4875100 0.0 1018682
02:00−8nw268563 0.0 1022329
05:00−10nw269099 0.0 1024216
08:00−8nnw1269100 0.0 1026641
11:00−4wnw2354100 0.0 10261466
14:00−2nw2348100 0.1 10251867
17:00−1nw124698 0.1 10251555
20:00−6se11855 0.1 102620
19 april, mon
mon1923:00−9sse119578 0.0 102612
02:00−9e1195100 0.0 102518
05:00−9ese1190100 0.0 102345
08:00−7se2468100 0.0 1019250
11:00−2ese485471 0.1 1013502
14:00+3sse61356100 0.1 10051149
17:00+2s61562100 0.0 10031255
20:00+1s61472100 0.6 1002803
20 april, tue
tue2023:000sw61276100 1.1 10051019
02:00−2sw61377100 1.1 10091271
05:00−5sw61278100 0.0 10131017
08:00−4sw51076100 0.1 10161196
11:00−3wsw5856100 0.1 10181779
14:00−1wsw6942100 0.1 10182437
17:00−1wsw5842100 0.0 10192399
20:00−5w2369100 0.1 102254